TimeEST,TemperatureF,Dew PointF,Humidity,Sea Level PressureIn,VisibilityMPH,Wind Direction,Wind SpeedMPH,Gust SpeedMPH,PrecipitationIn,Events,Conditions,WindDirDegrees,DateUTC
12:15 AM,29.7,27.5,92,29.64,7.0,South,6.9,-,N/A,Snow,Light Snow,190,2013-01-01 05:15:00
12:35 AM,30.4,28.0,91,29.64,7.0,SSW,8.1,-,N/A,Snow,Light Snow,210,2013-01-01 05:35:00
12:55 AM,31.3,29.1,92,29.64,7.0,WSW,5.8,-,N/A,,Overcast,250,2013-01-01 05:55:00
1:15 AM,32.0,26.8,81,29.65,4.0,NW,9.2,19.6,N/A,Snow,Light Snow,310,2013-01-01 06:15:00
1:35 AM,28.9,24.1,82,29.66,7.0,West,8.1,23.0,N/A,Snow,Light Snow,270,2013-01-01 06:35:00
1:55 AM,29.7,23.4,77,29.67,10.0,West,11.5,18.4,N/A,,Overcast,280,2013-01-01 06:55:00
2:15 AM,29.7,21.2,71,29.68,10.0,West,8.1,21.9,N/A,,Overcast,280,2013-01-01 07:15:00
2:35 AM,29.7,21.2,71,29.69,10.0,NW,11.5,23.0,N/A,,Overcast,310,2013-01-01 07:35:00
2:55 AM,27.1,19.4,73,29.70,10.0,WNW,10.4,24.2,N/A,Snow,Light Snow,300,2013-01-01 07:55:00
3:15 AM,27.1,16.9,65,29.70,10.0,West,9.2,21.9,N/A,,Overcast,280,2013-01-01 08:15:00
3:35 AM,27.1,17.4,67,29.72,10.0,WNW,9.2,24.2,N/A,,Overcast,290,2013-01-01 08:35:00
3:55 AM,24.6,14.4,65,29.74,10.0,WNW,8.1,18.4,N/A,,Overcast,300,2013-01-01 08:55:00
4:15 AM,23.4,13.1,65,29.75,10.0,West,10.4,18.4,N/A,,Overcast,280,2013-01-01 09:15:00
4:35 AM,22.1,11.7,64,29.76,10.0,West,5.8,-,N/A,,Overcast,270,2013-01-01 09:35:00
4:55 AM,19.9,8.4,61,29.79,10.0,West,9.2,18.4,N/A,,Mostly Cloudy,270,2013-01-01 09:55:00
5:15 AM,18.5,7.7,63,29.80,10.0,West,6.9,17.3,N/A,,Mostly Cloudy,280,2013-01-01 10:15:00
5:35 AM,17.1,7.7,67,29.81,10.0,WNW,8.1,-,N/A,,Scattered Clouds,290,2013-01-01 10:35:00
5:55 AM,16.3,7.9,69,29.83,10.0,WNW,5.8,-,N/A,,Scattered Clouds,290,2013-01-01 10:55:00
6:15 AM,14.5,6.6,71,29.84,10.0,WNW,5.8,-,N/A,,Mostly Cloudy,300,2013-01-01 11:15:00
6:35 AM,14.5,6.6,71,29.86,10.0,NW,6.9,-,N/A,,Overcast,320,2013-01-01 11:35:00
6:55 AM,13.1,3.7,66,29.87,10.0,WNW,9.2,-,N/A,,Overcast,290,2013-01-01 11:55:00
7:15 AM,12.0,2.1,65,29.88,10.0,WNW,8.1,19.6,N/A,,Scattered Clouds,290,2013-01-01 12:15:00
7:35 AM,12.0,2.7,66,29.89,10.0,WNW,4.6,-,N/A,,Clear,300,2013-01-01 12:35:00
7:55 AM,10.2,1.4,68,29.90,10.0,West,8.1,-,N/A,,Clear,280,2013-01-01 12:55:00
8:15 AM,9.5,0.5,67,29.91,10.0,WNW,5.8,-,N/A,,Clear,290,2013-01-01 13:15:00
8:35 AM,11.7,1.8,65,29.91,10.0,West,6.9,-,N/A,,Clear,280,2013-01-01 13:35:00
8:55 AM,12.0,1.9,64,29.91,10.0,WNW,3.5,-,N/A,,Clear,300,2013-01-01 13:55:00
9:15 AM,12.0,1.4,62,29.92,10.0,WNW,5.8,-,N/A,,Clear,300,2013-01-01 14:15:00
9:35 AM,12.0,1.2,62,29.92,10.0,WNW,9.2,-,N/A,,Clear,290,2013-01-01 14:35:00
9:55 AM,12.0,0.5,60,29.92,10.0,West,4.6,-,N/A,,Clear,280,2013-01-01 14:55:00
10:15 AM,12.2,-0.4,57,29.92,10.0,WNW,4.6,-,N/A,,Clear,300,2013-01-01 15:15:00
10:35 AM,12.7,-0.0,57,29.92,10.0,WNW,6.9,-,N/A,,Clear,300,2013-01-01 15:35:00
10:55 AM,14.2,0.9,56,29.91,10.0,West,9.2,16.1,N/A,,Clear,280,2013-01-01 15:55:00
11:15 AM,14.2,0.5,55,29.91,10.0,WNW,6.9,18.4,N/A,,Clear,290,2013-01-01 16:15:00
11:35 AM,14.5,0.9,55,29.90,10.0,West,6.9,-,N/A,,Clear,280,2013-01-01 16:35:00
11:55 AM,14.5,1.2,56,29.90,10.0,West,11.5,17.3,N/A,,Clear,280,2013-01-01 16:55:00
12:15 PM,14.5,1.4,56,29.90,10.0,West,8.1,-,N/A,,Clear,280,2013-01-01 17:15:00
12:35 PM,14.5,1.6,57,29.89,10.0,WNW,9.2,16.1,N/A,,Clear,290,2013-01-01 17:35:00
12:55 PM,15.3,2.1,56,29.88,10.0,West,8.1,-,N/A,,Clear,260,2013-01-01 17:55:00
1:15 PM,14.9,1.2,55,29.88,10.0,West,6.9,17.3,N/A,,Clear,280,2013-01-01 18:15:00
1:35 PM,15.3,0.9,53,29.87,10.0,West,5.8,-,N/A,,Clear,260,2013-01-01 18:35:00
1:55 PM,14.5,1.0,55,29.88,10.0,West,6.9,16.1,N/A,,Clear,280,2013-01-01 18:55:00
2:15 PM,14.5,0.5,54,29.89,10.0,West,8.1,-,N/A,,Clear,280,2013-01-01 19:15:00
2:35 PM,14.5,0.9,55,29.89,10.0,West,5.8,-,N/A,,Clear,280,2013-01-01 19:35:00
2:55 PM,13.8,0.5,56,29.89,10.0,West,6.9,-,N/A,,Clear,270,2013-01-01 19:55:00
3:15 PM,13.1,-0.6,54,29.89,10.0,WNW,8.1,-,N/A,,Clear,290,2013-01-01 20:15:00
3:35 PM,12.0,-1.1,56,29.89,10.0,WNW,5.8,-,N/A,,Clear,300,2013-01-01 20:35:00
3:55 PM,12.0,-0.0,59,29.89,10.0,NW,3.5,-,N/A,,Clear,310,2013-01-01 20:55:00
4:15 PM,9.5,-1.5,61,29.90,10.0,WNW,3.5,-,N/A,,Clear,290,2013-01-01 21:15:00
4:35 PM,9.3,-1.3,62,29.90,10.0,WNW,4.6,-,N/A,,Clear,290,2013-01-01 21:35:00
4:55 PM,8.2,-2.2,63,29.91,10.0,Calm,Calm,-,N/A,,Clear,0,2013-01-01 21:55:00
5:15 PM,7.0,-2.7,64,29.92,10.0,Calm,Calm,-,N/A,,Clear,0,2013-01-01 22:15:00
5:35 PM,6.8,-2.6,66,29.92,10.0,West,5.8,-,N/A,,Clear,260,2013-01-01 22:35:00
5:55 PM,6.8,-2.6,66,29.93,10.0,West,3.5,-,N/A,,Clear,280,2013-01-01 22:55:00
6:15 PM,6.8,-2.4,66,29.94,10.0,West,3.5,-,N/A,,Clear,270,2013-01-01 23:15:00
6:35 PM,6.8,-2.2,67,29.94,10.0,WNW,3.5,-,N/A,,Clear,290,2013-01-01 23:35:00
6:55 PM,6.8,-2.2,67,29.95,10.0,Calm,Calm,-,N/A,,Clear,0,2013-01-01 23:55:00
7:15 PM,5.7,-2.4,69,29.97,10.0,Calm,Calm,-,N/A,,Clear,0,2013-01-02 00:15:00
7:35 PM,5.2,-2.9,69,29.97,10.0,West,3.5,-,N/A,,Clear,280,2013-01-02 00:35:00
7:55 PM,6.6,-1.8,68,29.97,10.0,Calm,Calm,-,N/A,,Clear,0,2013-01-02 00:55:00
8:15 PM,4.5,-4.0,68,29.97,10.0,Calm,Calm,-,N/A,,Clear,0,2013-01-02 01:15:00
8:35 PM,4.8,-3.6,68,29.95,10.0,Calm,Calm,-,N/A,,Clear,0,2013-01-02 01:35:00
8:55 PM,4.5,-3.6,69,29.95,10.0,Calm,Calm,-,N/A,,Clear,0,2013-01-02 01:55:00
9:15 PM,0.9,-5.8,74,29.95,10.0,Calm,Calm,-,N/A,,Scattered Clouds,0,2013-01-02 02:15:00
9:35 PM,-0.4,-5.8,78,29.95,10.0,Calm,Calm,-,N/A,,Mostly Cloudy,0,2013-01-02 02:35:00
9:55 PM,0.9,-5.1,76,29.94,10.0,Calm,Calm,-,N/A,,Overcast,0,2013-01-02 02:55:00
10:15 PM,0.9,-5.3,75,29.94,10.0,Calm,Calm,-,N/A,,Overcast,0,2013-01-02 03:15:00
10:35 PM,-0.0,-5.4,78,29.94,10.0,Calm,Calm,-,N/A,,Overcast,0,2013-01-02 03:35:00
10:55 PM,1.9,-3.1,79,29.94,10.0,SE,3.5,-,N/A,,Overcast,140,2013-01-02 03:55:00
11:15 PM,0.5,-4.5,79,29.94,10.0,Calm,Calm,-,N/A,,Overcast,0,2013-01-02 04:15:00
11:55 PM,4.5,-1.8,75,29.94,7.0,Calm,Calm,-,N/A,,Overcast,0,2013-01-02 04:55:00